Location: Kermapucano
(48.0667°N, 3.3000°W)
Time: 20:40:12
(UTC+00:00)

YAOGAN 6 - Pass Details

Date: 29 November 2020
Orbit: 466 x 502 km, 97.0° (Epoch: 27 January)

Event Time Altitude Azimuth Distance (km) Brightness Sun altitude
Rises 06:56:06 0° 3° (N) 2,531 6.0 -7.3°
Reaches altitude 10° 06:58:18 10° 353° (N) 1,644 4.9 -7.0°
Maximum altitude 07:01:26 31° 290° (WNW) 856 3.3 -6.5°
Drops below altitude 10° 07:04:32 10° 227° (SW) 1,622 5.0 -6.0°
Sets 07:06:42 0° 217° (SW) 2,492 6.1 -5.7°
